sat.trackr.live / text

‹ back to catalog

CORAL

NORAD 67684 · 1998-067YA

PAYLOAD ACTIVE UNKNOWN

§ Identity

Operator
Country
IT
Launch date
1998-11-20
Launch site
TYMSC
Launch vehicle
Mass (kg)
RCS (m²)

Purposes: station

External: N2YO · Heavens-Above · Gunter

§ Orbital elements

Epoch: 2026-05-25T03:04:31.823904Z

Period
91.80 min
Inclination
51.6259°
Eccentricity
0.0013096
Mean motion
15.68546210 rev/d
Perigee alt
354.2 km
Apogee alt
371.9 km
Semi-major
6,741.2 km
B*
1.1132e-3
RAAN
46.3144°
Arg perigee
121.3622°
Mean anomaly
238.8658°
Rev number
1,673

§ Raw data

CORAL1 67684U 98067YA  26145.12814611  .00130769  00000+0  11132-2 0  99982 67684  51.6259  46.3144 0013096 121.3622 238.8658 15.68546210 16734

JSON: /api/v1/satellites/67684 · /tle

For live sub-satellite position, see the globe view (requires WebGL).

§ Visibility from observer

Set your observer location to see the next 7 days of passes ≥ 10°. The values pass through the URL so the page stays shareable.

No JS? Fill the form by hand. The geolocation button needs JavaScript.

§ Radio — SatNOGS DB

ModeDescriptionDownlinkUplink
MSK AX.100 Mode 5 9k6 AX100 437.300 MHz

1 transmitter · refreshed weekly from db.satnogs.org